TimeEST,TemperatureF,Dew PointF,Humidity,Sea Level PressureIn,VisibilityMPH,Wind Direction,Wind SpeedMPH,Gust SpeedMPH,PrecipitationIn,Events,Conditions,WindDirDegrees,DateUTC
12:15 AM,66.2,64.4,94,30.09,10.0,NE,3.5,-,0.00,,Overcast,50,2013-11-07 05:15:00
12:35 AM,66.2,62.6,88,30.08,10.0,Calm,Calm,-,0.00,,Overcast,0,2013-11-07 05:35:00
12:55 AM,66.2,62.6,88,30.07,10.0,NE,5.8,-,0.00,,Overcast,50,2013-11-07 05:55:00
1:15 AM,66.2,62.6,88,30.08,8.0,Calm,Calm,-,0.00,,Overcast,0,2013-11-07 06:15:00
1:35 AM,66.2,62.6,88,30.07,10.0,Calm,Calm,-,0.00,,Mostly Cloudy,0,2013-11-07 06:35:00
1:55 AM,66.2,64.4,94,30.06,8.0,Calm,Calm,-,0.00,,Light Drizzle,0,2013-11-07 06:55:00
2:15 AM,66.2,64.4,94,30.05,10.0,Calm,Calm,-,0.00,,Overcast,0,2013-11-07 07:15:00
2:55 AM,66.2,64.4,94,30.04,10.0,Calm,Calm,-,0.00,,Overcast,0,2013-11-07 07:55:00
3:15 AM,66.2,64.4,94,30.04,10.0,Calm,Calm,-,0.00,,Overcast,0,2013-11-07 08:15:00
3:35 AM,64.4,62.6,94,30.03,10.0,WNW,3.5,-,0.00,,Scattered Clouds,300,2013-11-07 08:35:00
3:55 AM,64.4,62.6,94,30.03,10.0,Calm,Calm,-,0.00,,Mostly Cloudy,0,2013-11-07 08:55:00
4:15 AM,64.4,62.6,94,30.03,10.0,WNW,4.6,-,0.00,,Mostly Cloudy,290,2013-11-07 09:15:00
4:35 AM,64.4,62.6,94,30.03,8.0,Calm,Calm,-,0.00,,Mostly Cloudy,0,2013-11-07 09:35:00
4:55 AM,64.4,62.6,94,30.03,6.0,Calm,Calm,-,0.00,,Overcast,0,2013-11-07 09:55:00
5:15 AM,64.4,62.6,94,30.03,7.0,Calm,Calm,-,0.00,,Mostly Cloudy,0,2013-11-07 10:15:00
5:35 AM,64.4,62.6,94,30.03,4.0,NW,3.5,-,0.00,,Mostly Cloudy,310,2013-11-07 10:35:00
5:55 AM,64.4,62.6,94,30.02,7.0,Calm,Calm,-,0.00,,Overcast,0,2013-11-07 10:55:00
6:15 AM,64.4,62.6,94,30.02,5.0,Calm,Calm,-,0.00,,Overcast,0,2013-11-07 11:15:00
6:35 AM,64.4,62.6,94,30.02,5.0,NW,3.5,-,0.00,,Overcast,310,2013-11-07 11:35:00
6:55 AM,64.4,62.6,94,30.03,5.0,NW,4.6,-,0.00,,Overcast,320,2013-11-07 11:55:00
7:15 AM,64.4,62.6,94,30.03,5.0,NW,4.6,-,0.00,,Overcast,320,2013-11-07 12:15:00
7:35 AM,64.4,64.4,100,30.04,5.0,NW,5.8,-,0.00,,Overcast,310,2013-11-07 12:35:00
7:55 AM,66.2,64.4,94,30.04,5.0,WNW,5.8,-,0.00,,Overcast,300,2013-11-07 12:55:00
8:15 AM,66.2,64.4,94,30.05,5.0,WNW,5.8,-,0.00,,Overcast,290,2013-11-07 13:15:00
8:35 AM,66.2,64.4,94,30.06,5.0,WNW,4.6,-,0.00,,Overcast,300,2013-11-07 13:35:00
8:55 AM,66.2,64.4,94,30.07,9.0,Calm,Calm,-,0.00,,Overcast,0,2013-11-07 13:55:00
9:15 AM,68.0,64.4,88,30.06,10.0,NW,3.5,-,0.00,,Mostly Cloudy,310,2013-11-07 14:15:00
9:35 AM,68.0,64.4,88,30.07,10.0,Calm,Calm,-,0.00,,Mostly Cloudy,0,2013-11-07 14:35:00
9:55 AM,69.8,64.4,83,30.06,10.0,Calm,Calm,-,0.00,,Partly Cloudy,0,2013-11-07 14:55:00
10:15 AM,69.8,62.6,78,30.06,10.0,SSW,3.5,-,0.00,,Partly Cloudy,200,2013-11-07 15:15:00
10:35 AM,68.0,64.4,88,30.06,10.0,South,3.5,-,0.00,,Partly Cloudy,180,2013-11-07 15:35:00
10:55 AM,69.8,64.4,83,30.05,10.0,Calm,Calm,-,0.00,,Clear,0,2013-11-07 15:55:00
11:15 AM,73.4,64.4,73,30.04,10.0,WSW,4.6,-,0.00,,Clear,240,2013-11-07 16:15:00
11:35 AM,73.4,64.4,73,30.03,10.0,Calm,Calm,-,0.00,,Scattered Clouds,0,2013-11-07 16:35:00
11:55 AM,73.4,64.4,73,30.03,10.0,West,4.6,-,0.00,,Partly Cloudy,280,2013-11-07 16:55:00
12:15 PM,73.4,64.4,73,30.02,10.0,West,6.9,-,0.00,,Scattered Clouds,270,2013-11-07 17:15:00
12:35 PM,75.2,62.6,65,30.00,10.0,WNW,6.9,-,0.00,,Scattered Clouds,290,2013-11-07 17:35:00
12:55 PM,73.4,62.6,69,30.00,10.0,West,5.8,-,0.00,,Partly Cloudy,260,2013-11-07 17:55:00
1:15 PM,75.2,62.6,65,29.98,10.0,West,5.8,-,0.00,,Partly Cloudy,260,2013-11-07 18:15:00
1:35 PM,75.2,62.6,65,29.97,10.0,Calm,Calm,-,0.00,,Partly Cloudy,0,2013-11-07 18:35:00
1:55 PM,75.2,64.4,69,29.98,10.0,West,3.5,-,0.00,,Partly Cloudy,270,2013-11-07 18:55:00
2:15 PM,78.8,64.4,61,29.97,10.0,Calm,Calm,-,0.00,,Clear,0,2013-11-07 19:15:00
2:35 PM,77.0,62.6,61,29.97,10.0,West,8.1,-,0.00,,Mostly Cloudy,260,2013-11-07 19:35:00
2:55 PM,75.2,64.4,69,29.97,10.0,SSW,5.8,-,0.00,,Scattered Clouds,210,2013-11-07 19:55:00
3:15 PM,75.2,64.4,69,29.96,10.0,SSW,6.9,-,0.00,,Clear,210,2013-11-07 20:15:00
3:35 PM,73.4,64.4,73,29.95,10.0,South,10.4,-,0.00,,Scattered Clouds,190,2013-11-07 20:35:00
3:55 PM,75.2,64.4,69,29.95,10.0,South,5.8,-,0.00,,Partly Cloudy,190,2013-11-07 20:55:00
4:15 PM,73.4,64.4,73,29.96,10.0,SW,5.8,-,0.00,,Mostly Cloudy,230,2013-11-07 21:15:00
4:35 PM,73.4,64.4,73,29.96,10.0,Calm,Calm,-,0.00,,Overcast,0,2013-11-07 21:35:00
4:55 PM,71.6,64.4,78,29.97,10.0,SW,5.8,-,0.00,,Mostly Cloudy,220,2013-11-07 21:55:00
5:55 PM,69.8,64.4,83,29.98,10.0,SW,3.5,-,0.00,,Partly Cloudy,220,2013-11-07 22:55:00
6:15 PM,69.8,64.4,83,29.99,10.0,Calm,Calm,-,0.00,,Clear,0,2013-11-07 23:15:00
6:35 PM,69.8,64.4,83,29.99,10.0,Calm,Calm,-,0.00,,Clear,0,2013-11-07 23:35:00
6:55 PM,68.0,64.4,88,29.99,10.0,Calm,Calm,-,0.00,,Clear,0,2013-11-07 23:55:00
7:15 PM,66.2,64.4,94,30.00,10.0,Calm,Calm,-,0.00,,Clear,0,2013-11-08 00:15:00
7:35 PM,66.2,64.4,94,30.00,10.0,Calm,Calm,-,0.00,,Clear,0,2013-11-08 00:35:00
7:55 PM,64.4,62.6,94,30.00,10.0,Calm,Calm,-,0.00,,Clear,0,2013-11-08 00:55:00
8:15 PM,64.4,62.6,94,30.01,10.0,Calm,Calm,-,0.00,,Clear,0,2013-11-08 01:15:00
8:35 PM,64.4,62.6,94,30.01,10.0,Calm,Calm,-,0.00,,Clear,0,2013-11-08 01:35:00
8:55 PM,64.4,62.6,94,30.01,10.0,Calm,Calm,-,0.00,,Clear,0,2013-11-08 01:55:00
9:15 PM,64.4,62.6,94,30.02,10.0,WNW,6.9,-,0.00,,Partly Cloudy,300,2013-11-08 02:15:00
9:35 PM,64.4,62.6,94,30.01,10.0,WNW,3.5,-,0.00,,Clear,300,2013-11-08 02:35:00
9:55 PM,64.4,60.8,88,30.02,10.0,Calm,Calm,-,0.00,,Clear,0,2013-11-08 02:55:00
10:15 PM,64.4,60.8,88,30.01,10.0,Calm,Calm,-,0.00,,Clear,0,2013-11-08 03:15:00
10:35 PM,62.6,60.8,94,30.01,10.0,Calm,Calm,-,0.00,,Clear,0,2013-11-08 03:35:00
10:55 PM,62.6,59.0,88,30.02,6.0,Calm,Calm,-,0.00,,Clear,0,2013-11-08 03:55:00
11:15 PM,62.6,60.8,94,30.02,7.0,Calm,Calm,-,0.00,,Scattered Clouds,0,2013-11-08 04:15:00
11:35 PM,64.4,62.6,94,30.03,10.0,NNW,6.9,-,0.00,,Mostly Cloudy,340,2013-11-08 04:35:00
11:55 PM,64.4,60.8,88,30.04,10.0,North,15.0,18.4,0.00,,Overcast,10,2013-11-08 04:55:00